Fairfield, CA

6:55 AM PDT on April 21, 2018 (GMT -0700)
Travis Air Force Base

Weather History for KSUU - November, 2013

Change the Weather History Date:

Wednesday, November 27, 2013

  Actual Average Record
Temperature  
Mean Temperature 50 °F -  
Max Temperature 63 °F 57 °F 66 °F (2014)
Min Temperature 38 °F 40 °F 33 °F (2005)
Degree Days  
Heating Degree Days 14    
Moisture  
Dew Point 40 °F    
Average Humidity 71    
Maximum Humidity 93    
Minimum Humidity 43    
Precipitation  
Precipitation 0.00 in - - ()
Sea Level Pressure  
Sea Level Pressure 29.95 in    
Wind  
Wind Speed 8 mph (NE)    
Max Wind Speed 17 mph    
Max Gust Speed -    
Visibility 10 miles    
Events      
Averages and records for this station are not official NWS values.
T = Trace of Precipitation, MM = Missing Value Source: NWS Daily Summary

Daily Weather History Graph

Daily Weather History Graph

Search for Another Location

Airport or City:

Astronomy

Nov. 27, 2013 Rise Set
Actual Time 7:02 AM PST 4:48 PM PST
Civil Twilight 6:33 AM PST 5:17 PM PST
Nautical Twilight 6:00 AM PST 5:50 PM PST
Astronomical Twilight 5:28 AM PST 6:21 PM PST
Moon 1:13 AM PST (11/27) 1:24 PM PST (11/27)
Length of Visible Light 10h 44m
Length of Day
9h 46m
Waning Crescent, 30% of the Moon is Illuminated
Nov 27
Waning Crescent
Dec 2
New
Dec 9
First Quarter
Dec 17
Full
Dec 25
Last Quarter

Hourly Weather History & Observations

Time (PST) Temp. Windchill Dew Point Humidity Pressure Visibility Wind Dir Wind Speed Gust Speed Precip Events Conditions
12:58 AM 41.5 °F 37.8 °F 39.6 °F 93% 30.06 in 10.0 mi ENE 5.8 mph - N/A   Clear
1:58 AM 43.0 °F - 40.1 °F 90% 30.06 in 10.0 mi ESE 2.3 mph - N/A   Clear
2:58 AM 43.7 °F 42.1 °F 40.8 °F 90% 30.04 in 10.0 mi East 3.5 mph - N/A   Partly Cloudy
3:58 AM 41.2 °F 37.3 °F 37.0 °F 85% 30.03 in 10.0 mi ENE 5.8 mph - N/A   Clear
4:58 AM 38.1 °F 32.3 °F 35.1 °F 89% 30.01 in 10.0 mi ENE 8.1 mph - N/A   Clear
5:58 AM 41.7 °F 36.7 °F 37.6 °F 85% 30.00 in 10.0 mi NE 8.1 mph - N/A   Mostly Cloudy
6:58 AM 42.8 °F 37.5 °F 37.4 °F 81% 29.99 in 10.0 mi NNE 9.2 mph - N/A   Mostly Cloudy
7:58 AM 43.9 °F 39.9 °F 37.8 °F 79% 30.00 in 10.0 mi East 6.9 mph - N/A   Clear
8:58 AM 50.4 °F - 38.8 °F 65% 30.00 in 10.0 mi NNE 11.5 mph - N/A   Partly Cloudy
9:58 AM 54.0 °F - 38.8 °F 57% 29.99 in 10.0 mi NNE 13.8 mph - N/A   Clear
10:58 AM 57.6 °F - 40.3 °F 53% 29.97 in 10.0 mi NNE 17.3 mph - N/A   Clear
11:58 AM 60.8 °F - 38.5 °F 44% 29.94 in 10.0 mi NNE 13.8 mph - N/A   Partly Cloudy
12:58 PM 63.0 °F - 39.9 °F 43% 29.92 in 10.0 mi NNE 13.8 mph - N/A   Partly Cloudy
1:58 PM 61.7 °F - 41.5 °F 48% 29.90 in 10.0 mi NE 11.5 mph - N/A   Clear
2:58 PM 62.6 °F - 43.0 °F 49% 29.89 in 10.0 mi NE 11.5 mph - N/A   Clear
3:58 PM 61.7 °F - 42.6 °F 50% 29.88 in 10.0 mi NNE 10.4 mph - N/A   Partly Cloudy
4:58 PM 56.5 °F - 43.2 °F 61% 29.88 in 10.0 mi NNE 8.1 mph - N/A   Clear
5:58 PM 51.4 °F - 42.8 °F 72% 29.88 in 10.0 mi NE 8.1 mph - N/A   Scattered Clouds
6:58 PM 50.5 °F - 42.4 °F 74% 29.88 in 10.0 mi NNE 8.1 mph - N/A   Clear
7:58 PM 49.5 °F - 41.2 °F 73% 29.89 in 10.0 mi NNE 10.4 mph - N/A   Clear
8:58 PM 47.3 °F - 39.6 °F 74% 29.89 in 10.0 mi SE 5.8 mph - N/A   Clear
9:58 PM 46.8 °F - 39.0 °F 74% 29.89 in 10.0 mi SSW 2.3 mph - N/A   Partly Cloudy
10:58 PM 44.1 °F - 39.6 °F 84% 29.89 in 10.0 mi West 2.3 mph - N/A   Clear
11:58 PM 44.1 °F 42.5 °F 40.3 °F 87% 29.89 in 10.0 mi WSW 3.5 mph - N/A   Clear